Temp
67 66 70 71 69 69 71 70 69 71 75 76 77 76 76 76 76 76 76 76 76 77 78 78 77 78 77 76 76 75 75 75 74 74 74 74 74 74 73 72 71 68 73
68 68 70 70 70 70 68 68 69 70 72 75 76 76 76 76 76 76 76 76 76 78 78 78 77 77 76 75 75 74 74 73 72 72 73 73 73 73 72 72 72 70 72
67 69 68 70 69 67 68 69 69 70 71 72 74 76 76 76 76 76 76 75 76 77 78 77 76 76 75 74 74 73 73 72 71 71 70 65 67 72 72 72 72 72 72
65 66 68 68 69 70 69 68 68 70 69 70 71 73 75 76 76 76 76 75 75 76 76 77 75 75 74 74 73 73 72 71 70 69 65 66 69 72 72 71 71 72 72
62 64 67 69 68 69 69 68 68 69 69 69 69 70 70 70 70 71 72 75 75 75 76 77 75 75 74 73 73 73 72 70 69 67 63 63 64 71 71 71 70 70 70
59 61 64 67 69 70 70 69 69 68 69 68 67 68 68 68 68 68 69 70 73 75 75 76 74 74 73 73 73 72 71 69 66 61 62 66 63 72 71 71 70 69 69
57 58 61 65 67 69 69 70 70 71 69 68 69 68 66 67 67 67 67 69 70 74 74 74 73 73 72 72 72 71 69 67 61 60 60 60 64 71 72 70 69 69 69
55 57 58 61 63 65 67 67 69 70 70 68 68 68 66 66 65 65 66 68 69 72 73 73 72 71 70 71 71 69 67 65 62 59 59 60 69 70 71 69 69 68 69
53 54 55 56 58 61 62 64 65 66 67 68 67 67 65 64 64 64 63 66 68 72 72 71 70 69 71 70 69 67 64 63 58 58 62 60 70 71 70 70 69 68 68
53 52 53 54 55 56 58 62 62 64 64 64 64 64 63 63 63 62 63 64 65 63 66 68 69 68 69 68 66 64 62 61 57 58 58 61 70 71 70 68 68 68 66
52 50 52 51 53 54 57 60 61 62 62 62 62 61 61 61 60 61 60 63 63 61 60 62 63 65 65 64 63 62 60 57 56 57 58 67 70 70 69 68 67 67 67
47 48 50 50 50 52 57 56 59 62 61 61 62 61 60 59 58 57 56 57 60 60 58 56 58 59 58 57 57 58 55 55 56 57 59 67 70 70 69 68 67 67 66
46 48 49 49 50 51 52 55 57 61 59 59 60 60 59 58 56 54 52 52 52 53 53 52 52 54 55 55 54 52 53 54 54 55 58 66 70 69 69 68 68 67 66
45 47 48 49 49 50 51 56 57 60 58 58 59 59 57 55 53 52 51 50 49 51 50 51 51 52 54 54 53 53 52 51 52 54 56 61 67 69 69 68 67 66 66
44 45 47 48 49 50 50 55 57 59 60 58 59 58 56 54 52 52 50 51 49 51 51 51 51 51 52 53 52 52 51 51 51 52 54 58 64 67 69 69 68 67 66
43 44 46 48 49 49 49 54 56 59 60 59 58 56 55 53 52 51 50 49 49 51 52 52 51 51 50 51 51 50 49 48 49 49 53 54 59 63 65 65 65 67 66
42 43 44 48 49 47 49 52 55 59 60 59 57 56 54 53 51 49 50 50 51 51 51 51 50 51 50 50 49 48 48 47 46 46 49 51 52 55 61 63 63 64 65
40 41 43 47 46 47 48 50 55 58 57 58 57 56 54 53 52 50 50 50 51 51 51 50 49 48 48 48 46 46 45 45 45 45 47 48 48 49 55 60 60 60 62
39 40 41 43 44 45 48 50 54 56 55 55 56 56 54 53 52 50 49 49 50 50 50 50 50 49 47 47 47 45 44 43 43 44 41 43 45 44 44 53 53 54 59
39 40 41 43 43 45 46 49 52 55 54 53 53 53 54 54 53 51 50 49 48 49 49 49 48 47 47 47 48 45 44 43 44 43 41 42 40 40 40 41 40 43 53
38 38 39 40 41 43 43 45 48 49 51 52 52 52 52 53 53 51 49 49 49 48 48 48 47 46 45 46 44 44 43 43 41 42 41 38 39 39 39 39 39 39 40
33 36 38 39 40 41 42 45 48 49 50 50 51 51 51 51 51 51 49 48 48 47 47 47 47 45 45 46 44 43 39 41 42 41 41 41 36 38 38 38 38 38 38
33 32 36 37 38 39 39 44 46 47 48 46 46 48 49 49 49 49 49 48 48 47 46 47 46 46 43 45 46 44 40 40 39 40 39 38 37 36 35 37 38 38 38
32 32 34 36 37 39 38 38 39 40 40 43 43 45 45 46 47 47 48 47 47 46 46 46 47 46 46 44 45 47 45 44 40 36 38 38 37 37 35 36 36 37 37
33 32 32 34 36 36 36 35 35 34 38 41 41 42 42 43 45 44 46 46 45 45 45 45 46 46 46 45 45 44 43 43 43 40 37 36 37 36 35 35 35 35 36
33 32 33 33 34 34 35 34 33 32 32 33 35 37 38 40 42 42 43 45 45 44 44 44 45 45 45 44 44 44 43 42 41 41 38 36 36 36 36 35 34 34 35
MSLP
1016.56 1016.30 1015.78 1015.45 1015.36 1015.24 1015.49 1015.06 1014.46 1014.39 1013.51 1012.84 1012.61 1012.62 1012.68 1012.75 1012.91 1012.98 1013.01 1012.85 1012.82 1012.91 1012.91 1012.89 1012.87 1013.01 1013.25 1013.43 1013.63 1013.86 1013.92 1014.04 1014.20 1014.31 1014.48 1014.63 1014.66 1014.76 1014.84 1014.91 1014.94 1014.98 1014.90
1017.17 1016.99 1016.25 1015.91 1015.76 1015.15 1015.49 1015.99 1015.96 1014.91 1013.54 1013.22 1012.73 1012.69 1012.68 1012.67 1012.85 1012.94 1012.89 1012.79 1012.72 1012.84 1012.85 1012.93 1012.89 1013.17 1013.46 1013.61 1013.81 1014.08 1014.30 1014.41 1014.52 1014.55 1014.66 1014.73 1014.92 1014.91 1015.01 1015.13 1015.15 1015.13 1015.18
1018.13 1017.43 1017.01 1016.67 1015.89 1015.93 1015.42 1015.08 1015.36 1014.79 1014.45 1013.87 1013.11 1012.75 1012.58 1012.68 1012.66 1012.71 1012.71 1012.71 1012.51 1012.60 1012.68 1012.99 1013.02 1013.29 1013.56 1013.73 1013.92 1014.15 1014.49 1014.68 1014.80 1014.91 1015.07 1015.23 1015.19 1015.15 1015.25 1015.36 1015.30 1015.32 1015.44
1018.90 1017.99 1017.30 1016.69 1016.39 1015.85 1015.58 1015.30 1015.61 1015.08 1014.79 1012.65 1013.60 1013.17 1012.96 1012.84 1012.75 1012.62 1012.54 1012.53 1012.37 1012.37 1012.48 1012.73 1012.96 1013.26 1013.51 1013.82 1013.99 1014.23 1014.56 1014.85 1015.07 1015.29 1015.43 1015.44 1015.31 1015.34 1015.40 1015.55 1015.65 1015.72 1015.73
1019.27 1018.59 1017.77 1016.80 1016.58 1016.11 1015.77 1015.33 1015.45 1015.47 1014.93 1014.39 1014.30 1013.90 1013.76 1013.70 1013.66 1013.66 1013.39 1012.62 1012.32 1012.20 1012.33 1012.60 1012.95 1013.21 1013.49 1013.70 1014.02 1014.22 1014.67 1014.93 1015.18 1015.49 1015.66 1015.66 1015.59 1015.56 1015.78 1015.91 1016.00 1016.07 1016.08
1019.84 1019.05 1018.32 1017.48 1016.74 1016.17 1015.92 1015.75 1015.19 1015.14 1014.68 1014.64 1015.07 1015.00 1014.68 1014.23 1013.77 1014.47 1013.88 1013.50 1012.85 1012.37 1012.41 1012.43 1012.86 1013.22 1013.46 1013.69 1014.02 1014.40 1014.80 1015.09 1015.36 1015.64 1015.76 1015.66 1015.70 1015.74 1015.97 1016.18 1016.35 1016.36 1016.44
1020.49 1019.69 1018.85 1018.17 1017.35 1016.74 1016.05 1015.67 1015.50 1015.06 1015.27 1014.59 1013.77 1014.43 1014.66 1014.48 1014.42 1014.12 1014.10 1013.49 1012.96 1012.35 1012.26 1012.43 1012.78 1013.20 1013.49 1013.69 1014.16 1014.62 1015.04 1015.27 1015.60 1015.85 1015.95 1015.96 1015.83 1015.85 1016.01 1016.40 1016.62 1016.68 1016.75
1021.12 1020.60 1019.58 1018.78 1018.16 1017.25 1016.64 1016.26 1015.60 1015.22 1015.12 1015.03 1014.56 1014.18 1014.12 1014.16 1014.37 1014.33 1013.79 1013.31 1012.26 1011.97 1011.97 1012.17 1012.66 1013.23 1013.53 1013.81 1014.23 1014.87 1015.31 1015.45 1015.72 1015.99 1016.11 1016.08 1015.89 1016.09 1016.38 1016.67 1016.83 1016.99 1017.12
1021.18 1020.77 1020.10 1019.50 1018.86 1017.98 1017.28 1016.78 1016.08 1015.67 1015.33 1014.98 1014.69 1014.65 1014.74 1014.41 1014.29 1014.53 1013.39 1012.99 1011.76 1011.50 1011.36 1011.81 1012.51 1013.18 1013.62 1014.00 1014.54 1015.12 1015.51 1015.76 1015.90 1016.08 1016.18 1016.19 1016.09 1016.28 1016.69 1016.80 1016.99 1017.25 1017.50
1021.50 1021.10 1020.53 1020.00 1019.30 1018.85 1017.91 1016.85 1016.37 1015.99 1015.65 1015.39 1015.41 1015.47 1014.77 1014.68 1014.69 1014.62 1014.06 1012.64 1012.35 1012.19 1011.77 1011.56 1013.02 1013.49 1013.99 1014.61 1015.07 1015.48 1015.82 1016.09 1016.16 1016.21 1016.34 1016.28 1016.21 1016.41 1016.87 1017.17 1017.35 1017.54 1017.89
1021.65 1021.38 1020.92 1020.48 1019.84 1019.10 1018.22 1017.04 1016.40 1016.32 1016.13 1015.75 1015.76 1015.20 1015.08 1014.95 1014.76 1014.94 1015.21 1013.54 1011.16 1013.06 1013.52 1013.65 1014.30 1014.52 1014.49 1015.30 1015.64 1015.93 1016.12 1016.48 1016.43 1016.47 1016.42 1016.27 1016.38 1016.62 1017.00 1017.33 1017.59 1017.85 1018.05
1022.42 1022.01 1021.58 1021.02 1020.15 1019.31 1018.52 1017.92 1016.90 1016.54 1016.31 1015.89 1015.69 1015.38 1015.40 1015.40 1015.27 1015.34 1015.51 1014.71 1014.01 1013.12 1012.59 1014.82 1015.54 1015.20 1015.51 1015.82 1016.23 1016.61 1016.62 1016.79 1016.82 1016.75 1016.64 1016.43 1016.52 1016.84 1017.13 1017.54 1017.82 1018.14 1018.29
1023.58 1022.89 1022.24 1021.54 1020.80 1019.89 1018.95 1018.17 1017.50 1016.51 1016.37 1016.39 1015.89 1015.80 1015.77 1015.80 1015.80 1016.03 1015.75 1015.39 1014.95 1014.92 1015.18 1014.38 1015.90 1016.18 1016.49 1016.50 1016.64 1017.07 1017.03 1017.27 1017.40 1017.24 1017.04 1016.65 1016.54 1016.96 1017.24 1017.66 1017.90 1018.24 1018.46
1023.85 1023.23 1022.49 1021.75 1021.25 1020.20 1019.32 1018.31 1017.59 1016.78 1016.50 1016.48 1016.25 1015.99 1015.97 1016.32 1016.48 1016.34 1016.51 1016.41 1016.38 1015.96 1015.48 1014.89 1016.07 1016.85 1017.20 1017.23 1017.18 1017.73 1017.91 1017.85 1017.79 1017.55 1017.44 1017.07 1016.85 1017.04 1017.28 1017.78 1018.02 1018.33 1018.55
1024.23 1023.41 1022.85 1022.22 1021.39 1020.83 1019.86 1018.53 1017.65 1016.86 1016.28 1016.33 1016.15 1016.30 1016.46 1016.64 1016.63 1016.60 1016.66 1016.56 1016.57 1015.94 1015.81 1016.07 1016.18 1017.37 1017.59 1017.78 1018.02 1018.28 1018.38 1018.33 1018.19 1018.05 1017.99 1017.65 1017.27 1017.34 1017.33 1017.60 1017.94 1018.29 1018.64
1024.81 1023.91 1022.96 1022.14 1021.47 1020.87 1020.15 1019.07 1018.04 1017.01 1016.41 1016.36 1016.33 1016.65 1016.84 1016.75 1016.77 1016.74 1016.85 1017.00 1016.61 1016.61 1016.54 1016.45 1016.80 1017.63 1017.75 1018.12 1018.57 1018.86 1018.97 1019.03 1018.88 1018.71 1018.61 1018.52 1018.34 1018.11 1017.86 1018.09 1018.37 1018.39 1018.70
1025.62 1024.72 1023.60 1022.48 1021.69 1021.20 1020.23 1019.42 1018.49 1017.42 1016.66 1016.36 1016.45 1016.67 1016.98 1017.02 1016.96 1016.92 1016.70 1016.85 1016.77 1017.04 1016.90 1017.27 1016.96 1017.38 1017.76 1018.36 1018.80 1019.21 1019.44 1019.67 1019.69 1019.40 1019.28 1019.14 1019.15 1019.16 1018.70 1018.31 1018.88 1019.10 1018.97
1026.48 1025.39 1024.25 1023.30 1022.46 1021.55 1020.61 1019.75 1018.79 1018.05 1017.65 1017.00 1016.73 1016.79 1016.81 1016.89 1016.93 1017.28 1017.18 1017.19 1017.02 1017.21 1017.55 1017.62 1017.68 1017.92 1018.24 1018.68 1019.15 1019.69 1019.96 1020.07 1020.19 1020.20 1020.03 1019.78 1019.87 1019.84 1019.42 1018.80 1019.46 1019.87 1019.68
1026.88 1026.18 1024.91 1023.86 1023.13 1022.23 1021.09 1020.12 1019.10 1018.62 1018.38 1018.05 1017.44 1017.08 1016.96 1017.16 1017.19 1017.33 1017.44 1017.16 1017.22 1017.35 1017.62 1017.97 1017.95 1018.06 1018.39 1019.00 1019.75 1020.39 1020.11 1020.40 1020.60 1020.76 1020.73 1020.59 1020.38 1020.35 1020.31 1019.98 1020.21 1020.61 1020.33
1027.49 1026.73 1025.90 1024.74 1023.83 1022.84 1021.85 1020.58 1019.64 1019.04 1019.13 1018.90 1018.36 1017.93 1017.35 1017.33 1017.30 1017.34 1017.69 1017.66 1017.46 1017.77 1017.83 1018.23 1018.39 1018.53 1018.99 1019.27 1019.81 1020.50 1020.53 1020.77 1020.89 1020.98 1021.13 1021.05 1021.12 1020.98 1020.98 1021.06 1021.21 1021.11 1021.13
1027.89 1027.22 1026.63 1025.81 1024.89 1023.82 1022.83 1021.76 1020.58 1020.07 1019.69 1019.35 1019.03 1018.68 1018.22 1017.89 1017.62 1017.65 1017.63 1017.94 1018.33 1018.11 1018.41 1018.48 1018.74 1018.94 1019.48 1019.67 1019.89 1020.76 1021.04 1021.20 1021.16 1021.14 1021.08 1021.74 1021.72 1021.85 1021.90 1021.71 1021.84 1021.87 1021.61
1028.88 1028.17 1027.27 1026.89 1026.10 1025.15 1024.15 1022.99 1022.02 1021.18 1020.75 1020.41 1019.93 1019.58 1019.11 1018.54 1018.23 1018.05 1017.96 1017.80 1018.30 1018.80 1018.63 1018.94 1018.87 1019.13 1019.24 1019.70 1019.86 1020.57 1021.02 1021.40 1021.30 1021.48 1021.37 1021.93 1022.49 1022.50 1022.45 1022.38 1022.35 1022.40 1022.19
1029.27 1028.92 1028.22 1027.68 1027.15 1026.45 1025.62 1024.12 1022.76 1021.75 1021.36 1021.04 1020.90 1020.43 1019.92 1019.57 1019.24 1018.70 1018.38 1018.46 1018.16 1018.61 1018.90 1018.88 1019.31 1019.49 1019.50 1019.84 1019.66 1019.92 1020.55 1020.87 1021.15 1021.74 1022.01 1022.00 1022.72 1023.00 1022.99 1022.77 1022.71 1022.74 1022.70
1029.72 1029.23 1028.49 1027.94 1027.53 1027.16 1026.67 1025.90 1025.05 1024.31 1023.63 1023.41 1022.85 1022.04 1021.24 1020.42 1019.85 1019.44 1019.05 1018.77 1018.57 1018.34 1018.80 1019.38 1019.21 1019.44 1019.93 1020.02 1019.81 1019.64 1019.96 1020.38 1020.93 1021.98 1022.29 1022.24 1022.66 1023.01 1023.16 1023.01 1023.02 1023.19 1023.02
1029.82 1029.70 1029.34 1028.65 1028.01 1027.49 1027.27 1027.05 1026.70 1026.14 1025.39 1024.65 1023.74 1022.76 1022.01 1021.26 1020.76 1020.24 1019.47 1019.11 1018.92 1018.92 1018.97 1019.03 1019.45 1019.37 1019.86 1019.90 1020.02 1019.80 1020.07 1020.48 1020.72 1021.11 1021.76 1022.27 1022.55 1022.71 1023.15 1023.16 1023.25 1023.34 1023.27
1029.96 1029.65 1029.32 1029.39 1028.91 1028.28 1027.55 1027.42 1027.35 1027.21 1026.70 1025.76 1024.90 1023.85 1023.02 1022.41 1021.82 1021.00 1020.26 1019.70 1019.49 1019.19 1019.30 1019.51 1019.52 1019.50 1019.84 1019.78 1019.91 1019.95 1020.04 1020.29 1020.48 1020.61 1021.17 1021.87 1022.31 1022.55 1023.07 1023.16 1023.39 1023.46 1023.50
Wind_Speed
7 8 13 15 9 11 21 28 32 29 17 8 7 9 10 10 11 12 12 13 12 12 11 11 11 10 11 11 11 13 15 16 15 16 15 14 12 14 14 14 13 7 14
13 8 8 10 10 13 16 19 26 32 22 18 9 9 10 11 13 14 12 12 13 13 13 12 12 10 11 13 13 14 15 15 14 12 12 13 12 13 13 13 13 11 13
15 9 7 10 5 5 6 16 22 26 30 22 18 9 9 10 10 11 12 12 13 14 14 12 12 12 12 13 14 15 14 14 15 14 13 5 6 13 13 13 13 13 12
13 14 13 9 7 4 6 9 11 18 32 15 20 16 12 8 9 9 10 11 13 13 14 13 13 13 13 13 14 16 15 14 13 12 5 4 6 12 13 12 12 11 12
14 14 17 17 5 6 6 5 7 9 14 29 31 31 29 30 29 24 20 10 12 13 15 15 14 14 14 14 12 16 14 14 14 9 6 5 4 10 12 11 12 12 11
13 14 17 23 23 13 7 1 2 4 10 11 8 18 20 25 28 29 29 23 17 12 13 16 14 14 13 14 14 16 15 15 12 6 5 7 5 11 12 13 11 12 12
13 13 14 22 23 21 20 5 1 7 7 0 2 6 9 17 23 25 27 23 22 16 14 16 15 14 13 13 16 15 15 14 6 6 5 5 5 12 12 12 11 11 14
11 12 13 18 21 22 19 18 11 5 3 6 4 1 4 9 6 9 16 21 17 15 16 18 16 13 12 12 16 16 14 11 7 6 5 4 10 13 10 10 12 13 13
9 11 13 13 15 18 19 12 15 17 15 10 5 5 4 4 2 4 5 22 23 12 17 20 17 14 11 16 17 15 11 10 6 4 4 3 11 14 11 11 12 14 10
10 11 13 13 13 11 12 15 9 12 15 14 11 10 2 4 1 4 5 15 23 35 14 17 14 15 15 16 16 13 11 10 6 5 3 2 13 13 12 12 12 14 11
13 14 13 13 13 12 11 11 11 8 10 10 7 5 4 2 2 7 15 10 29 24 27 25 15 10 15 13 13 12 9 3 4 3 2 11 13 13 12 12 13 12 10
18 16 14 13 14 12 10 10 10 5 4 6 6 5 3 3 4 5 7 15 18 22 28 21 15 13 8 4 5 7 3 4 4 3 2 11 12 11 13 11 13 10 11
13 12 14 13 13 12 11 8 5 3 3 3 5 4 3 3 3 3 3 5 5 10 6 16 6 5 5 4 5 4 5 4 3 3 6 11 12 11 13 12 11 9 11
14 14 15 15 11 13 9 7 7 5 2 2 3 4 3 1 3 3 3 3 3 3 7 6 5 5 5 6 6 6 5 4 3 3 7 7 6 12 14 11 11 11 11
17 16 16 14 13 12 12 9 8 8 2 1 3 3 2 2 2 2 3 3 3 4 4 6 6 4 4 6 6 5 6 6 6 4 5 17 8 11 9 11 12 11 11
15 16 15 15 13 13 12 12 9 8 4 0 2 2 3 2 2 2 3 3 3 3 3 4 6 5 5 5 6 6 6 5 6 6 5 7 17 14 18 20 17 10 11
13 15 16 16 14 13 13 12 9 8 7 3 2 4 3 2 2 2 3 2 3 3 5 3 5 5 6 6 7 5 5 5 5 6 5 5 6 12 12 19 18 17 10
14 16 16 14 15 16 12 10 8 9 8 6 2 2 4 4 4 1 2 3 3 3 2 3 3 5 5 5 5 4 4 4 6 6 5 5 4 4 7 18 14 13 15
13 14 16 16 17 17 14 10 10 9 8 8 7 4 3 2 3 2 2 3 3 3 3 2 2 3 5 6 6 3 4 4 4 4 6 6 6 5 4 14 13 12 13
13 14 15 14 17 17 11 9 7 7 8 7 8 8 8 1 1 1 2 1 3 3 3 3 4 4 3 5 6 5 4 4 3 4 5 5 5 6 6 6 5 6 12
14 15 16 17 17 13 11 11 7 9 8 8 9 11 11 8 4 1 1 2 5 1 2 3 3 7 3 3 4 3 3 3 4 4 4 4 6 5 5 5 4 4 5
9 13 16 16 17 14 11 10 5 8 6 8 8 10 11 11 8 4 0 3 4 0 2 2 2 2 3 3 3 2 2 0 2 3 3 4 4 3 4 5 5 5 4
10 10 12 13 14 15 17 11 9 6 7 9 12 11 11 12 10 8 5 1 3 3 1 1 2 3 1 2 3 2 2 1 2 1 2 4 3 2 2 3 4 4 4
7 7 7 9 12 13 16 14 15 9 8 7 8 8 10 13 13 12 6 4 3 2 2 1 3 2 1 2 0 2 3 3 2 2 0 2 2 1 1 2 3 3 4
6 7 8 8 9 10 11 12 10 12 8 8 8 10 10 12 12 13 10 6 4 3 1 1 1 3 1 1 1 1 1 1 1 1 2 1 1 1 0 1 2 1 3
6 7 6 8 8 9 9 10 11 10 11 10 12 10 10 8 9 12 13 8 4 4 3 3 1 1 1 1 0 1 1 0 2 2 1 1 1 1 2 2 2 2 1
Wind_Direction
351 8 38 48 56 2 350 350 331 348 303 214 188 173 170 168 174 177 179 174 169 161 156 149 142 149 118 130 123 116 108 101 98 95 90 87 83 78 76 74 67 60 74
356 11 28 38 25 26 10 347 348 334 337 302 226 196 188 188 187 188 190 186 177 173 165 160 151 144 133 124 121 119 112 107 103 95 94 90 89 86 80 81 85 84 80
354 358 4 14 9 46 23 3 354 346 346 333 305 249 209 200 204 203 203 199 188 187 166 167 152 153 145 135 136 126 122 115 109 99 93 86 90 90 86 84 81 82 85
354 359 6 347 342 73 84 58 340 358 349 19 34 360 307 262 231 225 217 212 206 196 171 169 156 154 150 146 147 137 127 117 106 102 88 87 89 93 90 85 81 81 82
4 0 5 9 11 348 28 296 307 348 37 31 28 30 34 32 25 6 342 259 226 204 179 168 161 155 153 150 155 142 131 122 111 104 97 96 99 94 89 84 81 81 79
2 4 6 9 10 5 323 261 133 2 60 36 15 30 10 14 7 360 356 339 304 224 190 170 165 155 153 146 145 140 131 121 109 104 102 107 101 96 102 90 94 94 85
1 359 6 11 2 5 4 274 175 148 149 351 26 63 10 341 348 350 342 325 323 265 199 177 152 151 148 148 148 138 132 123 113 104 107 107 109 107 101 91 95 91 87
3 358 358 359 2 355 2 5 349 343 250 193 178 106 358 14 7 335 356 344 309 275 194 164 148 146 139 170 145 135 130 121 112 111 109 105 105 107 96 98 92 88 87
356 358 4 353 352 350 343 350 357 348 344 355 346 304 82 81 267 221 110 40 25 269 185 147 142 126 137 131 130 127 120 120 113 114 112 112 115 108 103 108 100 89 90
2 2 1 352 347 344 327 321 338 330 330 340 344 332 93 109 82 4 88 80 55 51 15 111 117 123 136 127 126 117 109 107 104 107 94 143 122 104 111 103 97 94 84
7 0 359 348 343 339 332 331 325 321 317 310 318 5 346 337 23 13 340 63 99 77 54 27 47 95 100 105 104 101 91 83 96 86 82 120 112 103 112 110 97 95 89
353 351 353 347 338 335 333 327 316 317 333 333 333 341 355 18 46 46 26 39 43 90 90 41 3 38 57 71 78 71 74 70 59 55 15 120 107 115 117 114 103 87 96
335 345 346 346 337 333 334 329 321 326 349 341 341 2 19 27 43 29 5 1 32 54 38 95 17 23 33 58 70 63 55 57 45 38 8 123 118 127 116 115 110 108 91
350 345 344 343 343 336 330 321 320 311 337 357 349 356 9 24 33 49 49 39 40 63 82 48 79 38 36 52 66 67 52 52 37 44 29 45 111 133 120 114 108 106 100
352 345 345 342 342 341 331 325 327 326 296 9 18 22 16 41 47 66 51 60 45 60 73 87 99 78 77 58 58 65 55 47 44 40 48 39 77 132 120 119 124 110 98
347 342 338 342 347 340 339 331 327 331 306 210 87 60 62 66 73 68 86 68 62 62 53 107 118 134 96 74 68 53 53 39 41 41 50 43 48 71 80 72 61 92 97
343 336 343 342 344 346 338 334 323 337 334 288 92 115 91 75 59 72 89 70 71 30 93 79 90 105 98 97 75 60 56 44 40 39 42 39 34 24 73 69 57 40 64
348 348 340 342 344 343 342 336 331 352 354 349 1 91 122 134 124 113 100 108 111 110 102 112 111 94 92 90 88 67 65 58 47 40 42 47 43 26 19 69 51 38 29
353 349 350 349 349 343 340 341 344 5 7 2 359 14 53 86 129 147 180 139 139 116 116 140 85 91 110 101 94 58 71 62 54 56 48 45 44 41 14 57 50 35 32
360 358 358 357 355 347 344 344 354 7 14 7 9 3 2 24 196 119 342 314 139 129 120 87 94 67 88 113 102 75 47 57 57 60 45 42 42 40 40 47 34 18 26
10 5 3 360 355 355 353 349 350 354 10 8 6 5 3 359 15 101 128 78 332 68 40 136 120 125 87 114 100 73 59 47 61 53 71 32 37 40 44 49 42 25 3
1 4 10 5 358 357 353 347 344 348 16 1 5 6 3 4 359 353 276 130 146 228 173 177 157 131 107 166 133 139 153 62 58 48 61 75 37 30 51 50 58 47 35
13 2 7 5 4 5 356 354 358 18 15 12 6 4 5 5 359 10 358 330 146 149 172 99 119 350 49 192 110 139 151 198 99 37 45 86 54 34 35 59 54 50 46
359 349 5 13 17 13 8 6 9 12 11 358 348 354 358 7 9 5 7 3 3 119 91 292 155 131 99 248 49 111 53 102 142 157 301 100 97 77 27 57 61 41 34
3 4 355 0 22 20 21 21 16 9 1 344 351 356 3 1 1 9 356 1 27 9 27 136 282 150 171 184 256 85 119 92 78 162 132 111 112 96 233 115 109 61 34
357 13 23 4 10 2 29 23 25 15 356 2 356 2 358 359 350 4 357 3 359 25 15 349 59 87 202 123 304 222 150 169 193 118 89 117 188 161 198 159 160 164 123